OneWeb SL0436

operational
NORAD ID: 51633 Int'l Des: 2022-012 Owner: ONEWEBN Country: UK Constellation: oneweb
LEOCIRCULARPOLARONEWEB_TYPE

关于 OneWeb SL0436

正在加载描述...

实时位置

正在加载3D地球...

即将过境

高度历史

Altitude vs Time

uPlot chart will show altitude changes over time

两行轨道根数

1 51633U 22012M 25260.90510449 -.00000008 00000-0 -54980-4 0 9992
2 51633 87.9046 59.9922 0001508 95.5282 264.6021 13.17647200177822
Epoch: Sep 17, 2025 • Age: 9 hours

当前状态

高度 1204.8 km
速度 7.26 km/s
星下点 69.82°N, 39.68°W
发射日期 Feb 10, 2022
运行时间 3.6 years
类型 internet

技术详情

分类 Payload
质量 148.00 kg
干质量 140.00 kg
总质量 148.00 kg
长度 1.30 m
直径 1.00 m
跨度 5.00 m
形状 Trapezoid+2 pan
制造商 ONEWUS
平台类型 ARROW
阶段状态 In Orbit
所有者/国家 ONEWEBN/UK

大型星座

Loading constellations...